Location: Albany
(35.0000°S, 118.0000°E)
Time: 09:47:00
(UTC-05:00)

Daily predictions for brighter satellites

Satellite Brightness Start Highest point End
(mag) Time Altitude Azimuth Time Altitude Azimuth Time Altitude Azimuth
ATLAS 2AS CENTAUR R/B 4.2 12:48:05 27° SE 12:48:05 27° SE 12:50:44 10° SE
H-2A ROCKET BODY 3.9 13:38:33 64° NNW 13:39:36 66° NNE 14:27:16 10° E
Okean O Rocket 3.8 13:47:54 23° SSE 13:47:54 23° SSE 13:49:46 10° S
ADEOS II 3.0 13:55:03 45° ESE 13:55:09 45° ESE 14:00:13 10° S
ATLAS CENTAUR R/B 3.9 13:59:28 17° ESE 13:59:28 17° ESE 14:00:56 10° ESE
ATLAS 3B R/B 2.8 13:55:23 10° SSW 14:02:47 84° ESE 14:10:24 10° NNE
CZ-4B DEB 4.4 14:07:22 69° SE 14:07:22 69° SE 14:12:40 10° S
Nadezhda 4 Rocket 3.9 14:13:01 75° SSW 14:13:01 75° SSW 14:18:46 10° S
ERS-2 4.4 14:17:37 22° SSE 14:17:37 22° SSE 14:19:08 10° S
DELTA 2 R/B (1) 3.6 14:22:43 77° SSE 14:22:43 77° SSE 14:28:00 10° ESE
NOSS 3-4 (A) 4.1 14:26:05 45° N 14:28:39 68° ENE 14:36:20 10° SE
NOSS 3-4 (C) 4.1 14:26:11 44° N 14:28:47 68° ENE 14:36:28 10° SE
Cosmos 1420 Rocket 4.1 14:25:10 10° SSW 14:30:30 75° ESE 14:32:00 47° NE
SL-16 R/B 2.5 14:25:05 10° SSE 14:31:22 82° ENE 14:32:59 53° N
Cosmos 1892 4.2 14:32:53 32° ENE 14:33:14 33° E 14:36:45 10° SSE
ATLAS 2AS CENTAUR R/B 4.1 14:35:31 19° SW 14:35:55 19° SW 14:40:14 10° S
Cosmos 1048 Rocket 3.9 14:36:33 71° SW 14:36:33 71° SW 14:41:27 10° SSE
Cosmos 2082 Rocket 3.5 14:35:22 20° NNE 14:38:33 35° ENE 14:43:39 10° SE
Okean-O 3.5 14:37:15 18° NE 14:40:24 49° ESE 14:44:45 10° S
UNK 3.9 14:38:00 10° S 14:42:07 62° SW 14:42:07 62° SW
USA 161 4.2 14:44:08 10° SSE 14:45:01 18° SSE 14:45:01 18° SSE
ASTRO E2 3.6 14:50:12 39° NE 14:50:12 39° NE 14:53:06 10° ENE
Cosmos 1627 Rocket 4.5 14:46:20 34° N 14:49:20 89° ENE 14:55:47 10° S
Meteor 1-26 Rocket 4.4 14:45:29 10° S 14:51:29 76° E 14:57:19 10° NNE
Cosmos 2221 Rocket 4.3 14:53:28 10° S 14:57:58 55° E 15:02:25 10° NNE
Cosmos 2195 Rocket 4.4 14:56:13 36° NNW 14:58:53 74° W 15:05:06 10° S
USA 215 3.2 14:54:16 10° SE 15:00:56 88° NE 15:04:02 35° NW
Cosmos 1869 Rocket 3.6 14:59:55 44° N 15:01:17 82° E 15:05:47 10° S
Cosmos 2278 4.4 14:57:39 10° SSW 15:03:17 55° ESE 15:08:49 10° NE
CZ-4B R/B 4.0 15:04:44 32° WSW 15:04:44 32° WSW 15:08:50 10° SSW
Iridium 4 Rocket 3.8 14:59:57 10° N 15:05:32 73° E 15:10:48 10° S
Cosmos 1092 Rocket 4.4 15:06:18 37° WNW 15:07:24 40° WSW 15:13:18 10° S
Meteor 1-31 Rocket 2.6 15:06:06 36° NNE 15:07:35 89° WNW 15:11:29 10° SSW
COSMOS 2455 3.3 15:03:09 10° SSW 15:09:10 65° ESE 15:15:08 10° NE
Cosmos 1833 Rocket 3.2 15:05:17 18° N 15:09:22 59° ENE 15:14:57 10° SSE
RUBIN 8/PSLV 4.4 15:11:21 31° N 15:13:16 65° WNW 15:17:37 10° SSW
NOAA 6 4.2 15:08:24 10° NNE 15:13:29 72° ESE 15:18:40 10° S
Cosmos 2251 Rocket 3.7 15:11:03 21° N 15:14:45 75° ENE 15:20:10 10° SSE
Landsat 4 3.6 15:12:18 10° S 15:16:08 69° WSW 15:17:02 49° NW
SJ-6F 4.5 15:12:54 10° NNE 15:17:00 78° ESE 15:21:09 10° S
Cosmos 1553 Rocket 4.2 15:12:01 10° S 15:18:09 69° E 15:24:13 10° NNE
Okean 1-7 3.1 15:15:13 10° S 15:19:41 82° E 15:24:03 10° N
Cosmos 1400 Rocket 3.8 15:21:01 10° NNE 15:24:53 47° E 15:28:45 10° SSE
Meteor 2-20 Rocket 4.4 15:20:24 18° NNW 15:24:57 64° W 15:31:04 10° S
Cosmos 1174 3.8 15:21:59 10° SSW 15:26:38 84° ESE 15:30:16 10° NNE
USA 238 DEB 4.1 15:20:19 10° SW 15:26:50 40° WNW 15:33:17 10° N
USA 238 4.1 15:20:23 10° SW 15:26:55 40° WNW 15:33:23 10° N
Tiangong 2 3.4 15:25:19 13° SW 15:27:01 19° S 15:29:25 10° SE
NOSS 3-2 (A) 3.3 15:23:04 10° SSW 15:29:29 81° WNW 15:35:24 10° NNE
COSMOS 2487 3.9 15:30:09 24° WSW 15:30:09 24° WSW 15:32:56 10° SSW
Cosmos 2084 3.7 15:27:41 10° SSW 15:32:32 83° ESE 15:37:02 10° NNE
PSLV R/B 3.3 15:31:36 27° WSW 15:33:21 82° SSE 15:36:47 10° ENE
Cosmos 1782 3.5 15:30:05 10° S 15:34:04 56° E 15:37:59 10° NNE
ADEOS II 3.6 15:36:00 18° W 15:36:00 18° W 15:38:44 10° SW
Radarsat Rocket 3.8 15:29:32 10° N 15:35:23 73° WNW 15:41:21 10° SSW
ATLAS CENTAUR R/B 2.5 15:35:47 23° WSW 15:36:43 25° SW 15:40:12 10° S
Cosmos 1656 4.0 15:33:52 10° SSW 15:39:27 69° ESE 15:45:03 10° NNE
BREEZE-M DEB (TANK) 3.5 15:43:45 19° NNW 15:45:46 57° NE 15:52:52 10° SE
Cosmos 1606 3.3 15:43:32 10° S 15:47:21 60° E 15:51:08 10° NNE
MOZ.5/SAFIR/RUBIN 5/SL-8 4.4 15:43:51 10° S 15:48:17 37° WSW 15:51:43 15° NW
Cosmos 1733 Rocket 3.2 15:46:05 10° N 15:50:26 76° E 15:54:52 10° S
Cosmos 1697 Rocket 3.3 15:44:57 10° SSW 15:50:35 61° ESE 15:56:09 10° NNE
ATLAS 3B R/B 4.1 15:48:19 10° WSW 15:52:43 17° WNW 15:57:11 10° NW
ERBS 4.1 15:50:10 10° SSW 15:53:27 35° SE 15:56:43 10° ENE
Meteor 2-10 Rocket 4.5 15:49:13 10° SW 15:53:37 26° W 15:57:52 10° NW
Cosmos 1980 Rocket 3.8 15:50:11 10° S 15:55:27 39° ESE 16:00:40 10° NE
Cosmos 494 Rocket 4.4 15:53:33 14° NW 15:57:45 42° WSW 16:02:40 10° S
NOSS 3-2 (C) 3.4 15:52:06 10° SW 15:58:25 64° WNW 16:04:18 10° NNE
Meteor 1-27 Rocket 4.3 15:53:06 10° S 15:58:39 61° E 16:04:11 10° NNE
Cosmos 1825 2.1 15:55:09 10° N 15:58:58 80° W 16:02:51 10° S
CZ-3 R/B 2.8 15:44:41 15° WNW 16:00:16 53° N 16:05:41 10° ENE
Cosmos 1315 Rocket 3.2 15:56:20 10° N 16:00:26 71° E 16:04:39 10° SSE
RESURS DK-1 3.3 15:59:09 16° WNW 16:01:53 31° WSW 16:05:38 10° S
CENTAUR R/B 3.8 16:00:40 10° SSW 16:06:22 41° SE 16:11:40 10° ENE
DELTA 2 R/B (1) 4.2 16:03:44 10° WSW 16:09:13 53° S 16:14:41 10° ESE
Cosmos 724 4.3 16:05:01 10° SSW 16:10:50 68° WNW 16:16:45 10° NNE
SL-16 R/B 4.2 16:11:01 10° SSW 16:14:10 14° WSW 16:17:19 10° W
Timation 2 Rocket 4.3 16:09:58 10° NW 16:15:42 45° WSW 16:21:27 10° S
Okean-O 4.4 16:15:16 10° WNW 16:17:07 12° W 16:19:01 10° WSW
Cosmos 883 Rocket 4.5 16:12:45 10° S 16:19:01 78° W 16:25:17 10° N
OAO 3 Copernicus 4.4 16:14:16 10° W 16:19:21 90° S 16:24:27 10° E
Cosmos 2082 Rocket 3.2 16:17:48 10° WNW 16:22:37 28° WSW 16:27:28 10° S
CZ-2C R/B 2.9 16:23:00 10° NNE 16:28:12 76° ESE 16:33:27 10° S
ASTRO E2 3.4 16:25:45 10° W 16:29:32 39° NNW 16:33:19 10° ENE
Cosmos 2266 Rocket 4.3 16:23:59 10° NNW 16:29:43 44° W 16:35:36 10° S
